OSCAR 7 (AO-7) (7530 NORAD) Tracking and Keplerian Element Data

This shows tracking and keplerian element data for the satellite.

Feedback or suggestion? Click here.




ElementValue
Catalog7530
NameOSCAR 7 (AO-7)
Epoch Orbit14471
Epoch Day270.15732821
Epoch Year2021
RAAN244.5938
Inclination101.8669
Eccentricity0.0012039
Argument of Perigee185.3941
Mean Anonmoly238.5247
Mean Motion12.5365045
Decay Rate-3.6E-07
L11 07530U 74089B 21270.15732821 -.00000036 00000-0 58816-4 0 9996
L22 07530 101.8669 244.5938 0012039 185.3941 238.5247 12.53650450144718

Live tracking and technical data element details for OSCAR 7 (AO-7) (NORAD 7530). OSCAR 7 (AO-7) can be tracked NOW for your location showing map with azimuth and elevation plus other details from your city location.

Track the satellite on the map from your city or location and see movement details for azimuth, elevation, latitude, longitude, range, height, and movement on the map or in text.







IsCatalogInMostPopularTable: catalog: 7530, numindb: 2191
Update: records affected: 1



GetName: 7530 OSCAR 7 (AO-7)

Hit Count: updated at: Tue, 28 Sep 2021 17:30:12 GMT